sat.trackr.live / text

‹ back to catalog

STARLINK-32926

NORAD 63025 · 2025-032W

PAYLOAD ACTIVE UNKNOWN

§ Identity

Operator
Country
US
Launch date
2025-02-15
Launch site
AFETR
Launch vehicle
Mass (kg)
RCS (m²)

Purposes: comms

External: N2YO · Heavens-Above · Gunter

§ Orbital elements

Epoch: 2026-09-20T03:35:57.477984Z

Period
94.27 min
Inclination
43.0017°
Eccentricity
0.0001012
Mean motion
15.27582261 rev/d
Perigee alt
482.3 km
Apogee alt
483.7 km
Semi-major
6,861.2 km
B*
3.3879e-4
RAAN
317.5333°
Arg perigee
270.1059°
Mean anomaly
89.9677°
Rev number
9,036

§ Raw data

STARLINK-329261 63025U 25032W   26263.14997081  .00009073  00000+0  33879-3 0  99972 63025  43.0017 317.5333 0001012 270.1059  89.9677 15.27582261 90369

JSON: /api/v1/satellites/63025 · /tle

For live sub-satellite position, see the globe view (requires WebGL).

§ Visibility from observer

Set your observer location to see the next 7 days of passes ≥ 10°. The values pass through the URL so the page stays shareable.

No JS? Fill the form by hand. The geolocation button needs JavaScript.